Simultaneous Nadir Overpasses (SNOs) Predictions

Prediction of SNOs between AQUA and GOES-15 Satellite Orbit:

Table of predicted SNOs for the next 14.0 days since TLE Epoch: 1/14/2023
Index Date Time (AQUA) AQUA Lat,Lon GOES-15 Lat,Lon Distance(km) Time Diff (sec)
1 01/14/2023 10:10:45 -0.31,-126.78 0.01,-128.10 150.57 80
2 01/14/2023 22:31:54 -0.83,-131.90 -0.00,-128.06 437.18 80
3 01/16/2023 22:18:48 -0.12,-128.71 -0.00,-128.09 70.34 80
4 01/18/2023 22:05:41 0.57,-125.51 -0.01,-128.11 295.93 80
5 01/19/2023 10:26:42 0.52,-130.61 0.01,-128.16 277.38 80
6 01/21/2023 10:13:34 -0.17,-127.41 0.01,-128.18 88.29 80
7 01/21/2023 22:34:42 -0.93,-132.53 -0.01,-128.14 499.17 80
8 01/23/2023 10:00:25 -0.84,-124.20 0.00,-128.19 453.90 80
9 01/23/2023 22:21:33 -0.24,-129.33 -0.00,-128.15 133.57 80
10 01/25/2023 22:08:24 0.44,-126.12 0.00,-128.16 232.51 80
11 01/26/2023 10:29:24 0.62,-131.21 -0.00,-128.21 341.28 80
